Location: Valencia
(39.4670°N, 0.3670°W)
Time: 18:18:48
(UTC+02:00)

ISS - Pass Details

Date: 08 August 2017
Orbit: 401 x 408 km, 51.6° (Epoch: 19 August)

Event Time Altitude Azimuth Distance (km) Brightness Sun altitude
Rises 23:51:23 0° 299° (WNW) 2,313 1.0 -26.2°
Reaches altitude 10° 23:53:36 10° 288° (WNW) 1,451 -0.4 -26.5°
Enters shadow 23:54:25 15° 280° (W) 1,171 -1.0 -26.6°
